Regional Weather Roundup
Issued by NWS

Home | Current Version | Previous Version | Graphics & Text | Print | Product List | Glossary On
Versions: 1 2 3 4 5 6 7 8 9 10 11 12 13 14 15 16 17 18 19 20 21 22 23 24 25 26 27 28 29 30 31 32 33 34 35 36 37 38 39 40 41 42 43 44 45 46 47 48 49 50
000
ASUS45 KTFX 080010
RWRMT
MONTANA REGIONAL WEATHER ROUNDUP
NATIONAL WEATHER SERVICE GREAT FALLS MT
600 PM MDT TUE JUL 07 2015

NOTE: "FAIR" INDICATES FEW OR NO CLOUDS BELOW 12000 FEET WITH NO
SIGNIFICANT WEATHER AND/OR OBSTRUCTIONS TO VISIBILITY.

MTZ001>007-043-080100-
WEST OF THE DIVIDE

CITY           SKY/WX    TMP DP  RH WIND       PRES   REMARKS
KALISPELL      PTCLDY    76  50  40 S7        30.02F
MISSOULA       CLOUDY    76  48  37 SW7       30.01S
BUTTE          CLOUDY    70  48  45 NE7G18    30.10F
MULLAN PASS    MOSUNNY   71  42  35 N5        30.13F
DEER LODGE       N/A     72  48  43 NE9       30.13S
EUREKA           N/A     75  57  53 E9        29.99S
HAMILTON         N/A     75  50  41 N7        30.03R
LIBBY            N/A     82  54  36 W5        29.97F
RONAN            N/A     74  52  46 N9        30.07F
$$

MTZ008-052>055-080100-
SOUTHWEST MONTANA

CITY           SKY/WX    TMP DP  RH WIND       PRES   REMARKS
BOZEMAN        CLOUDY    69  53  56 NE8       30.05S
DILLON         CLOUDY    69  44  40 NW17G26   30.07R
W YELLOWSTONE  MOSUNNY   73  37  27 NE9       30.09F
THREE FORKS      N/A     74  62  66 NE6       30.04F
TWIN BRIDGES     N/A     74  45  35 N16       30.04R
$$

MTZ009-010-012-014-046-048-049-054-080100-
EAST SLOPES AND CENTRAL MONTANA

CITY           SKY/WX    TMP DP  RH WIND       PRES   REMARKS
CUT BANK       MOSUNNY   69  46  43 E6        30.11F
GREAT FALLS    PTSUNNY   67  50  54 VRB6      30.11F
MALMSTROM AFB  MOSUNNY   66  53  62 NE2       30.11F
HELENA         PTSUNNY   74  46  36 N13       30.07F
CONRAD           N/A     72  55  54 SW2       30.13F
$$

MTZ011-013-016-021-045-047-050-051-080100-
NORTH CENTRAL MONTANA

CITY           SKY/WX    TMP DP  RH WIND       PRES   REMARKS
HAVRE          PTSUNNY   74  45  35 W6        30.03F
LEWISTOWN      PTSUNNY   64  46  52 N16       30.13R
CHINOOK          N/A     73  52  46 SW8       30.02F
FORT BENTON      N/A     72  52  49 SE3       30.09F
$$

MTZ017>020-022>027-061-062-080100-
NORTHEAST MONTANA

CITY           SKY/WX    TMP DP  RH WIND       PRES   REMARKS
GLASGOW        PTSUNNY   77  44  30 W12       29.96F
JORDAN           N/A     78  47  33 N13       29.99S
SIDNEY         SUNNY     79  50  36 N14       29.96S
WOLF POINT     MOSUNNY   78  51  38 SW9       29.95F
MALTA            N/A     71  49  45 W13       29.99R
PLENTYWOOD       N/A     75  52  43 SW8       29.95F
POPLAR           N/A     77  50  38 W7        29.94F
$$

MTZ028>42-056>058-080100-
SOUTHCENTRAL AND SOUTHEAST MONTANA

CITY           SKY/WX    TMP DP  RH WIND       PRES   REMARKS
BAKER          SUNNY     77  47  34 NW8       29.96S
BILLINGS       MOSUNNY   80  41  24 NE14      30.01F
LIVINGSTON     CLOUDY    73  43  33 NE15G29   30.06R
MILES CITY     SUNNY     82  45  27 NE10      29.94F
FORSYTH          N/A     81  43  26 N10       29.95F
LAUREL           N/A     80  43  27 N7        29.99F
ROUNDUP          N/A     76  42  29 N25       29.96R
$$

REGIONAL REPORTS...DAKOTAS

CITY           SKY/WX    TMP DP  RH WIND       PRES   REMARKS
WILLISTON      PTSUNNY   75  51  43 NW8       29.96F
MINOT          MOSUNNY   75  54  47 S17       29.93F
DICKINSON      CLOUDY    64  58  80 SE8       29.95F
BEACH          LGT RAIN  68  64  88 N5        29.99S
CROSBY         FAIR      73  55  53 SW9       29.94F
BISMARCK       MOSUNNY   73  55  53 SE14      29.99F
GRAND FORKS    MOSUNNY   72  45  37 S9        30.03F
FARGO          SUNNY     71  45  39 S14       30.06F
BUFFALO SD       N/A     80  51  36 W6        29.89F
RAPID CITY     SUNNY     71  57  61 S17G24    30.01F
$$

REGIONAL REPORTS...WYOMING/IDAHO/WASHINGTON

CITY           SKY/WX    TMP DP  RH WIND       PRES   REMARKS
GILLETTE       CLOUDY    66  53  63 NW16      30.05R
SHERIDAN       PTSUNNY   75  53  46 NW10      30.02S
BUFFALO WY     PTSUNNY   69  49  48 NW5       30.08S
CODY           PTSUNNY   66  48  52 NW14      30.08S
YELLOWSTONE LA   N/A     68  37  32 MISG      30.20F
IDAHO FALLS    MOSUNNY   83  45  26 W5        29.96F
SALMON         PTSUNNY   75  48  38 N10       30.00F
BOISE          MOSUNNY   96  41  15 N12       29.83F HX  92
SPOKANE        PTSUNNY   89  48  24 N14       29.89F
$$

REGIONAL REPORTS...ALBERTA

CITY           SKY/WX    TMP DP  RH WIND       PRES   REMARKS
EDMONTON       SUNNY     66  37  34 N3        30.04F
CALGARY        PTSUNNY   64  50  59 N3        30.12F
LETHBRIDGE     PTSUNNY   72  50  46 NE6       30.07F
MEDICINE HAT   MOSUNNY   79  43  27 NW13      30.02F
CARDSTON         N/A     70  50  49 S3          N/A
MILK RIVER       N/A     72  46  40 SW6         N/A
ONEFOUR          N/A     59  52  77 NE18        N/A
$$

REGIONAL REPORTS...SASKATCHEWAN

CITY           SKY/WX    TMP DP  RH WIND       PRES   REMARKS
SWIFT CURRENT  PTSUNNY   72  50  46 N14G21    30.02S
REGINA         MOSUNNY   75  52  43 N15G23    29.93F
SASKATOON      PTSUNNY   64  41  42 NE14G22   30.03S
CYPRESS HILLS    N/A     64  45  48 N5          N/A
VAL MARIE        N/A     75  41  29 N15         N/A
ROCKGLEN         N/A     72  45  37 NW10        N/A
$$


USA.gov is the U.S. government's official web portal to all federal, state and local government web resources and services.